Home > Time Zones > World Clock > Weather > Iran > Rasht > Past weeks

Flag for Iran Weather past 2 weeks in Rasht, Iran

Now
81 °F

Scattered clouds.


Feels Like: 84 °F
Forecast: 69 / 92 °F
Wind: 2 mph from North

Location: Rasht Airport

Current Time: Aug 1, 2014 at 8:57:46 PM

Latest Report: Aug 1, 2014 at 8:30 PM


Visibility: N/A

Pressure: 29.77 "Hg

Humidity: 70%

Dew point: 70 °F

Location of RashtLocation

Historic Weather in Rasht — Graph

°F

Rasht temperature yesterday

Maximum temperature yesterday: 86 °F (at 1:30 PM)
Minimum temperature yesterday: 68 °F (at 6:30 AM)
Average temperature yesterday: 79 °F

Past Weeks' High & Low Weather Summary

 TemperatureHumidityPressure
High93 °F (Jul 27, 1:30 PM)100% (Aug 1, 6:30 AM)29.92 "Hg (Aug 1, 6:30 AM)
Low68 °F (Jul 24, 4:30 AM)32% (Jul 27, 1:30 PM)29.56 "Hg (Jul 18, 8:30 PM)
Average81 °F65%29.76 "Hg
* Reported Jul 17 7:30 PM — Aug 1 8:00 PM, Rasht, Weather by CustomWeather, © 2014

Note: Actual official high and low records may vary slightly from our data, if they occured in-between our weather recording intervals... More about our weather records

Advertising

Rasht weather history for previous 24 hours

 ConditionsComfort  
Time TempWeatherWind HumidityBarometerVisibility
8:00 PM
Aug 1
81 °FScattered clouds.5 mph70%29.77 "HgN/A
7:30 PM81 °FPassing clouds.7 mph70%29.77 "HgN/A
6:30 PM86 °FPassing clouds.7 mph62%29.77 "HgN/A
6:00 PM86 °FPassing clouds.7 mph62%29.77 "HgN/A
5:30 PM86 °FPassing clouds.7 mph62%29.77 "HgN/A
5:00 PM86 °FPassing clouds.7 mph62%29.77 "HgN/A
4:30 PM86 °FPassing clouds.7 mph62%29.77 "HgN/A
3:30 PM86 °FPassing clouds.9 mph62%29.77 "HgN/A
3:00 PM86 °FPassing clouds.2 mph62%29.77 "HgN/A
2:30 PM86 °FPassing clouds.7 mph62%29.77 "HgN/A
2:00 PM86 °FPassing clouds.9 mph59%29.80 "HgN/A
1:30 PM86 °FScattered clouds.12 mph59%29.80 "HgN/A
1:00 PM86 °FPassing clouds.12 mph59%29.80 "HgN/A
12:30 PM86 °FPassing clouds.2 mph59%29.80 "HgN/A
12:00 PM84 °FPassing clouds.5 mph66%29.83 "HgN/A
11:30 AM84 °FPassing clouds.No wind66%29.83 "HgN/A
11:00 AM81 °FSunny.2 mph70%29.83 "Hg10 mi
10:30 AM81 °FSunny.2 mph70%29.83 "Hg10 mi
10:00 AM79 °FScattered clouds.5 mph70%29.83 "HgN/A
9:30 AM79 °FScattered clouds.5 mph70%29.83 "HgN/A
9:00 AM73 °FScattered clouds.2 mph83%29.83 "HgN/A
8:30 AM73 °FScattered clouds.No wind83%29.83 "HgN/A
8:00 AM72 °FScattered clouds.No wind94%29.83 "HgN/A
7:30 AM70 °FPassing clouds.No wind94%29.83 "Hg4 mi
7:00 AM68 °FFog.No wind100%29.80 "Hg3 mi
6:30 AM68 °FFog.No wind100%29.80 "Hg3 mi
5:30 AM70 °FPassing clouds.No wind94%29.80 "HgN/A
4:30 AM70 °FPassing clouds.No wind94%29.80 "HgN/A
3:30 AM72 °FPassing clouds.5 mph94%29.80 "HgN/A
2:30 AM73 °FRain showers. Partly cloudy.12 mph83%29.83 "Hg4 mi
1:30 AM75 °FThunderstorms. Passing clouds.5 mph74%29.83 "HgN/A
11:30 PM
Jul 31
75 °FPassing clouds.2 mph83%29.83 "HgN/A
10:30 PM75 °FPassing clouds.2 mph83%29.83 "HgN/A
9:30 PM77 °FScattered clouds.No wind79%29.83 "HgN/A
8:30 PM79 °FScattered clouds.2 mph74%29.80 "HgN/A
8:00 PM81 °FPassing clouds.No wind62%29.80 "HgN/A
Weather by CustomWeather, © 2014

See weather overviewHow to use our weather pages